TimeMDT,TemperatureF,Dew PointF,Humidity,Sea Level PressureIn,VisibilityMPH,Wind Direction,Wind SpeedMPH,Gust SpeedMPH,PrecipitationIn,Events,Conditions,WindDirDegrees,DateUTC
12:53 AM,39.0,21.0,49,29.97,10.0,South,5.8,-,N/A,,Partly Cloudy,180,2013-03-16 06:53:00
1:53 AM,35.1,21.0,57,29.98,10.0,ESE,9.2,-,N/A,,Clear,120,2013-03-16 07:53:00
2:53 AM,32.0,19.9,61,29.98,10.0,ESE,5.8,-,N/A,,Clear,120,2013-03-16 08:53:00
3:53 AM,30.9,21.0,67,29.96,10.0,SSW,5.8,-,N/A,,Scattered Clouds,200,2013-03-16 09:53:00
4:53 AM,33.1,21.0,61,29.95,10.0,South,8.1,-,N/A,,Clear,180,2013-03-16 10:53:00
5:53 AM,33.1,21.0,61,29.96,10.0,South,8.1,-,N/A,,Clear,180,2013-03-16 11:53:00
6:53 AM,30.9,21.0,67,29.98,10.0,South,11.5,-,N/A,,Clear,190,2013-03-16 12:53:00
7:53 AM,32.0,21.0,64,29.96,10.0,South,9.2,-,N/A,,Clear,190,2013-03-16 13:53:00
8:53 AM,33.1,21.9,64,29.96,10.0,SSW,11.5,-,N/A,,Clear,200,2013-03-16 14:53:00
9:53 AM,39.0,23.0,53,29.96,10.0,SW,19.6,-,N/A,,Clear,220,2013-03-16 15:53:00
10:53 AM,44.1,19.0,37,29.94,10.0,WSW,18.4,23.0,N/A,,Clear,250,2013-03-16 16:53:00
11:03 AM,44.6,17.6,34,29.96,10.0,WSW,20.7,25.3,N/A,,Clear,250,2013-03-16 17:03:00
11:53 AM,45.0,18.0,34,29.93,10.0,West,26.5,32.2,N/A,,Clear,260,2013-03-16 17:53:00
12:53 PM,46.0,18.0,33,29.90,10.0,WSW,17.3,-,N/A,,Clear,250,2013-03-16 18:53:00
1:53 PM,46.9,18.0,32,29.88,10.0,West,6.9,-,N/A,,Clear,280,2013-03-16 19:53:00
2:53 PM,51.1,15.1,24,29.83,10.0,West,16.1,-,N/A,,Clear,260,2013-03-16 20:53:00
3:53 PM,51.1,14.0,23,29.79,10.0,WSW,10.4,-,N/A,,Partly Cloudy,250,2013-03-16 21:53:00
4:53 PM,53.1,10.9,19,29.75,10.0,WSW,18.4,-,N/A,,Scattered Clouds,240,2013-03-16 22:53:00
5:53 PM,50.0,10.9,21,29.73,10.0,SSW,13.8,-,N/A,,Overcast,210,2013-03-16 23:53:00
6:53 PM,48.9,14.0,25,29.72,10.0,SW,19.6,25.3,N/A,,Overcast,230,2013-03-17 00:53:00
7:53 PM,46.0,12.9,26,29.70,10.0,South,10.4,-,N/A,,Overcast,180,2013-03-17 01:53:00
8:53 PM,45.0,21.0,39,29.67,10.0,South,11.5,-,N/A,,Overcast,180,2013-03-17 02:53:00
9:53 PM,44.1,18.0,35,29.62,10.0,South,12.7,-,N/A,,Overcast,190,2013-03-17 03:53:00
10:53 PM,43.0,16.0,34,29.59,10.0,WSW,16.1,-,N/A,,Overcast,240,2013-03-17 04:53:00
11:53 PM,39.9,19.9,45,29.57,10.0,SSW,11.5,-,N/A,,Overcast,210,2013-03-17 05:53:00